Vorticity
9 8 8 9 8 8 9 9 8 11 10 9 7 5 6 8 6 4 6 5 2 10 6 7 5 5 3 3 4 2 3 4 4 5 1 3 5 3 4 6 6 4 4 1 1 5 7 4 2
10 10 9 7 9 8 8 9 8 8 10 11 11 11 8 7 7 6 9 5 2 -1 7 1 6 7 4 2 3 3 2 5 5 5 3 2 4 4 4 6 6 6 5 2 0 4 8 5 3
12 11 10 9 9 10 8 8 10 10 9 7 7 8 13 13 9 6 6 11 3 5 3 7 3 3 7 6 3 3 1 3 6 3 4 3 3 5 3 5 7 7 4 4 2 1 5 6 4
7 8 10 7 7 6 7 7 5 7 7 8 8 7 6 7 7 12 15 6 10 7 6 5 10 5 4 5 6 5 3 2 4 5 6 3 3 3 5 4 6 7 5 5 3 1 3 6 7
5 5 6 2 8 6 6 3 4 2 2 2 3 5 7 9 5 5 7 8 12 7 7 5 5 7 11 12 6 7 3 1 3 4 4 5 4 1 4 4 5 7 5 7 4 3 1 4 6
4 3 4 4 4 4 3 3 3 4 5 5 5 5 5 8 8 6 8 7 4 7 10 6 8 3 7 9 5 8 7 2 1 1 4 4 4 3 3 5 5 5 5 8 4 6 1 2 5
5 4 4 4 4 5 3 2 3 4 4 5 5 3 2 2 3 4 5 6 6 9 4 9 8 7 5 7 13 7 8 8 3 2 2 3 5 3 4 4 4 4 7 8 5 6 3 0 4
6 5 6 4 3 4 4 4 3 3 3 4 5 5 5 4 4 3 3 2 3 5 9 6 6 9 4 6 4 15 13 7 9 3 2 4 4 6 3 4 4 4 6 7 6 6 6 1 2
7 7 6 5 4 3 6 5 5 4 3 2 5 5 5 4 3 4 3 3 4 3 3 7 7 5 9 4 3 2 11 18 6 9 4 3 3 5 4 2 4 4 5 7 6 4 5 4 1
7 7 7 6 5 4 5 8 6 3 3 4 3 5 5 6 7 6 6 7 4 5 6 5 5 6 4 10 4 4 -0 3 14 5 8 3 4 5 4 3 4 3 4 9 6 5 4 6 2
7 7 7 7 6 6 5 6 4 4 4 5 6 6 7 7 5 5 5 5 5 7 2 6 7 4 7 5 8 3 5 5 6 15 5 3 4 7 3 2 4 3 4 7 9 6 4 7 3
6 7 8 8 7 7 8 6 5 3 4 5 7 7 8 7 7 7 7 5 5 5 5 5 7 5 6 7 5 7 3 5 10 -1 23 16 4 4 5 4 4 3 4 7 9 7 5 7 4
6 8 9 9 9 9 6 6 5 6 8 7 6 4 4 4 6 6 5 5 4 3 4 4 2 6 8 6 7 6 5 5 3 2 2 33 -11 4 4 4 5 4 3 5 8 7 5 6 5
8 9 10 9 8 7 5 5 6 7 6 7 9 13 12 11 10 13 5 6 9 5 4 3 3 4 5 11 7 6 8 4 3 9 35 16 21 -0 7 6 4 5 3 5 8 7 5 4 6
5 11 9 7 7 5 6 5 7 5 8 9 11 8 5 11 13 10 2 1 23 5 9 8 7 3 5 6 9 7 4 5 4 -1 0 51 46 -2 4 5 5 5 4 5 7 7 5 3 6
13 9 8 6 5 5 4 7 5 6 9 9 7 -2 7 8 14 26 30 36 35 20 12 15 9 10 5 8 12 6 5 6 1 -1 2 -2 2 0 2 5 5 4 5 4 6 6 6 5 5
9 7 5 4 6 5 6 9 4 6 6 7 4 9 11 32 37 35 35 35 34 37 36 28 17 12 10 10 9 9 8 3 4 10 10 2 53 10 -1 4 5 4 5 4 5 6 6 5 3
8 7 5 4 5 8 6 4 4 3 5 6 6 8 29 28 34 27 25 29 32 34 37 33 32 24 10 11 11 11 7 3 3 9 -9 11 -3 18 1 3 7 6 5 4 5 6 6 7 4
7 6 3 7 6 5 0 5 5 6 7 5 9 19 29 30 25 26 27 26 24 28 26 34 27 38 17 7 8 10 7 5 1 -11 9 15 16 59 -0 2 5 6 4 5 5 6 6 6 6
5 4 4 5 8 0 5 6 4 3 7 3 13 22 25 28 26 29 20 18 22 26 29 24 29 37 27 13 4 8 7 6 2 3 2 16 -22 48 7 0 3 4 4 5 4 5 6 6 7
7 7 6 4 6 6 6 5 1 6 6 8 13 23 28 21 37 29 21 14 15 24 32 27 23 39 34 21 5 5 7 5 6 12 34 5 10 -16 19 -2 3 4 6 5 5 6 6 7 8
8 5 6 4 4 4 4 6 4 4 7 9 13 20 26 28 32 25 21 16 15 21 31 29 26 29 39 27 14 9 6 5 6 13 -44 35 23 6 40 5 3 4 3 6 4 6 6 8 8
8 5 6 5 4 3 7 5 7 5 5 11 13 18 25 28 26 23 18 15 20 26 25 32 34 28 42 30 14 13 3 8 9 -3 -6 -35 7 4 44 11 -1 -18 0 26 3 5 5 6 8
6 6 5 4 5 3 4 4 6 5 7 10 13 19 25 30 26 20 17 18 14 28 30 27 40 32 40 31 20 20 1 12 5 3 10 38 -24 23 -12 13 1 -10 23 8 5 4 6 6 7
7 8 8 6 4 6 8 5 4 6 7 8 12 19 25 31 29 20 17 14 12 20 19 26 31 36 40 34 25 20 3 16 4 7 -19 5 -22 39 7 42 7 1 -15 16 5 6 4 5 6
8 8 3 7 4 3 6 6 4 5 7 7 12 16 23 30 31 21 16 15 12 19 13 17 28 35 41 38 30 21 8 16 -0 0 18 -7 -10 -21 0 26 15 7 -26 30 4 5 4 5 4
8 9 5 6 1 3 2 7 4 5 6 7 10 15 22 25 31 22 14 13 17 8 15 15 23 31 44 37 35 23 9 14 13 15 4 7 19 -10 44 -26 8 -17 4 29 -1 5 4 4 6
5 7 7 5 7 8 4 4 3 6 6 7 8 16 20 24 32 24 15 12 19 17 8 13 19 21 40 40 35 27 12 22 9 5 11 -24 6 -18 -7 -3 31 16 -21 20 11 1 4 3 6
8 6 8 4 4 5 4 3 5 4 6 8 7 11 16 27 29 29 17 13 18 20 8 14 22 17 26 39 38 30 17 24 7 7 -2 13 -2 6 29 47 -27 66 18 -10 -1 11 6 3 6
10 6 7 5 5 5 4 2 5 4 5 6 6 9 14 19 30 39 16 15 18 17 7 21 20 14 23 33 36 36 18 23 8 8 3 31 -20 -38 -26 11 -12 36 44 32 -9 35 6 2 3
Height
5790 5789 5788 5788 5791 5788 5787 5787 5786 5790 5792 5792 5793 5792 5796 5798 5801 5801 5802 5804 5805 5807 5809 5812 5815 5816 5817 5819 5823 5825 5828 5832 5837 5838 5838 5842 5846 5846 5849 5851 5851 5853 5854 5855 5855 5858 5860 5861 5862
5787 5786 5784 5782 5784 5782 5783 5782 5781 5784 5785 5786 5786 5787 5790 5792 5795 5796 5797 5799 5799 5802 5806 5808 5807 5811 5813 5813 5816 5818 5823 5824 5830 5835 5835 5837 5841 5845 5846 5850 5851 5853 5854 5855 5856 5858 5860 5861 5862
5781 5780 5780 5778 5777 5778 5778 5778 5777 5778 5778 5780 5781 5782 5784 5787 5789 5789 5790 5793 5795 5796 5799 5801 5801 5801 5805 5808 5811 5813 5817 5819 5823 5830 5834 5835 5839 5843 5843 5846 5849 5850 5853 5856 5857 5857 5860 5862 5862
5778 5777 5776 5775 5774 5775 5774 5773 5772 5772 5773 5773 5773 5775 5778 5779 5780 5783 5785 5786 5790 5789 5791 5795 5796 5796 5794 5796 5802 5806 5811 5813 5818 5821 5828 5830 5835 5838 5842 5844 5847 5848 5850 5854 5857 5857 5859 5860 5862
5774 5773 5772 5771 5770 5769 5769 5768 5767 5767 5767 5768 5768 5768 5771 5772 5774 5773 5775 5777 5780 5783 5785 5787 5790 5791 5793 5796 5793 5798 5804 5808 5812 5816 5820 5825 5829 5834 5839 5842 5844 5847 5847 5853 5854 5857 5858 5860 5862
5768 5768 5767 5766 5765 5764 5764 5762 5762 5761 5762 5762 5761 5760 5762 5766 5768 5767 5766 5769 5772 5775 5777 5780 5783 5784 5787 5788 5789 5792 5795 5801 5807 5813 5818 5822 5824 5830 5835 5838 5841 5843 5845 5849 5851 5855 5857 5858 5860
5761 5761 5760 5759 5759 5759 5758 5757 5756 5755 5754 5755 5755 5753 5754 5756 5759 5758 5758 5759 5762 5765 5768 5770 5773 5776 5777 5781 5783 5783 5789 5790 5797 5804 5809 5815 5819 5825 5829 5834 5837 5838 5842 5846 5848 5852 5855 5857 5858
5755 5754 5754 5753 5752 5752 5751 5750 5749 5749 5748 5746 5745 5746 5746 5746 5747 5748 5747 5749 5751 5754 5759 5760 5762 5765 5770 5771 5772 5776 5780 5786 5789 5793 5799 5805 5811 5819 5823 5827 5831 5833 5836 5841 5845 5847 5851 5854 5856
5747 5747 5746 5745 5745 5745 5743 5742 5741 5740 5740 5738 5737 5735 5736 5736 5735 5737 5739 5738 5739 5741 5745 5750 5752 5754 5758 5761 5762 5767 5772 5775 5779 5785 5790 5795 5802 5809 5816 5821 5824 5828 5829 5834 5840 5844 5847 5851 5853
5738 5738 5737 5736 5736 5735 5734 5733 5731 5730 5729 5727 5726 5725 5724 5724 5722 5724 5725 5726 5727 5728 5731 5736 5739 5742 5746 5750 5754 5758 5763 5767 5770 5774 5781 5786 5792 5799 5806 5813 5817 5822 5827 5828 5832 5839 5843 5847 5851
5730 5729 5727 5727 5726 5725 5724 5723 5720 5719 5718 5715 5714 5712 5709 5708 5708 5708 5708 5710 5711 5713 5716 5719 5726 5729 5733 5738 5743 5747 5753 5756 5761 5766 5767 5772 5782 5789 5796 5803 5810 5815 5819 5826 5829 5834 5840 5841 5847
5720 5719 5718 5717 5716 5715 5715 5712 5711 5708 5705 5702 5699 5698 5695 5692 5690 5688 5690 5691 5693 5695 5698 5701 5706 5714 5719 5724 5729 5736 5740 5746 5750 5752 5748 5758 5771 5783 5789 5797 5803 5810 5815 5821 5827 5830 5838 5837 5842
5711 5710 5709 5708 5707 5706 5703 5700 5699 5694 5691 5687 5683 5680 5676 5673 5670 5668 5667 5667 5669 5673 5678 5682 5686 5693 5702 5709 5715 5722 5728 5732 5739 5739 5741 5748 5759 5772 5781 5790 5795 5802 5808 5813 5818 5824 5831 5835 5838
5703 5701 5700 5699 5697 5697 5693 5689 5686 5682 5677 5671 5665 5658 5653 5646 5643 5643 5640 5639 5640 5643 5651 5658 5664 5672 5680 5691 5698 5706 5714 5718 5726 5729 5732 5744 5749 5761 5770 5780 5788 5794 5799 5807 5811 5816 5823 5831 5833
5693 5693 5691 5690 5688 5686 5682 5678 5674 5668 5662 5656 5647 5639 5629 5619 5611 5607 5605 5606 5605 5608 5615 5626 5638 5645 5657 5668 5680 5688 5698 5705 5713 5720 5726 5731 5739 5748 5760 5768 5777 5786 5791 5797 5803 5808 5814 5822 5828
5685 5684 5682 5682 5679 5676 5672 5666 5661 5654 5648 5638 5629 5617 5604 5589 5577 5567 5562 5560 5560 5569 5577 5588 5602 5617 5629 5642 5657 5669 5680 5689 5698 5707 5713 5719 5732 5739 5749 5757 5766 5775 5782 5788 5794 5801 5808 5815 5822
5677 5675 5674 5672 5670 5666 5662 5655 5648 5640 5630 5620 5608 5594 5577 5558 5540 5529 5524 5520 5518 5523 5534 5548 5564 5584 5600 5616 5632 5648 5660 5672 5680 5695 5706 5708 5718 5729 5738 5745 5756 5766 5772 5780 5787 5793 5800 5808 5816
5669 5667 5665 5663 5660 5655 5649 5642 5634 5625 5613 5600 5586 5569 5547 5528 5512 5501 5494 5489 5489 5493 5501 5511 5527 5548 5567 5586 5605 5624 5638 5653 5663 5680 5693 5698 5708 5719 5728 5736 5745 5755 5763 5770 5779 5785 5792 5801 5807
5660 5659 5656 5653 5648 5644 5638 5630 5621 5611 5598 5584 5567 5545 5523 5503 5490 5479 5470 5468 5468 5471 5476 5482 5497 5515 5535 5557 5576 5599 5617 5635 5646 5666 5678 5691 5697 5706 5717 5726 5735 5744 5754 5764 5773 5778 5784 5791 5798
5652 5650 5647 5643 5637 5634 5627 5619 5608 5597 5582 5567 5549 5526 5503 5486 5471 5459 5453 5451 5450 5453 5455 5461 5472 5488 5508 5528 5549 5574 5594 5615 5629 5647 5668 5677 5684 5694 5707 5716 5726 5734 5745 5754 5762 5769 5776 5783 5792
5643 5641 5638 5634 5630 5624 5617 5610 5597 5584 5568 5551 5531 5509 5487 5469 5456 5446 5441 5437 5434 5435 5438 5441 5451 5465 5483 5503 5523 5548 5572 5594 5612 5635 5654 5664 5670 5680 5694 5705 5715 5725 5736 5747 5755 5764 5772 5780 5787
5635 5633 5629 5625 5621 5615 5607 5600 5587 5573 5556 5538 5516 5493 5472 5456 5443 5435 5431 5426 5422 5421 5421 5423 5432 5445 5462 5482 5501 5524 5550 5573 5598 5618 5638 5649 5661 5673 5683 5694 5704 5716 5727 5737 5746 5756 5764 5772 5779
5628 5624 5621 5616 5612 5607 5598 5588 5576 5564 5548 5529 5507 5483 5463 5446 5434 5427 5422 5417 5412 5409 5407 5409 5416 5428 5444 5463 5483 5505 5530 5554 5579 5603 5625 5636 5652 5661 5669 5681 5693 5706 5720 5727 5738 5747 5755 5765 5773
5620 5616 5613 5609 5604 5599 5588 5578 5568 5553 5539 5521 5499 5478 5457 5440 5428 5420 5415 5410 5405 5401 5399 5399 5405 5415 5428 5446 5467 5489 5515 5538 5565 5589 5608 5623 5636 5647 5661 5671 5683 5696 5703 5718 5728 5739 5747 5757 5767
5613 5609 5604 5600 5595 5590 5579 5570 5559 5545 5531 5514 5495 5473 5453 5436 5424 5417 5411 5405 5401 5397 5394 5394 5398 5405 5416 5433 5453 5475 5501 5524 5551 5573 5592 5607 5625 5635 5648 5657 5669 5683 5688 5709 5719 5729 5738 5748 5758
5606 5603 5598 5591 5587 5582 5574 5563 5553 5539 5525 5509 5489 5469 5449 5432 5421 5414 5408 5403 5398 5395 5393 5391 5393 5399 5409 5424 5442 5464 5490 5512 5537 5559 5578 5591 5608 5625 5638 5650 5661 5673 5687 5694 5709 5719 5729 5739 5750
5599 5596 5593 5587 5582 5574 5568 5557 5547 5534 5521 5505 5487 5467 5447 5430 5418 5411 5406 5401 5397 5394 5392 5391 5391 5395 5403 5417 5433 5456 5480 5503 5523 5543 5566 5583 5601 5614 5628 5641 5653 5664 5676 5680 5698 5708 5721 5729 5741
5592 5589 5586 5581 5573 5566 5561 5551 5540 5530 5518 5503 5487 5469 5449 5431 5418 5411 5405 5401 5396 5393 5392 5391 5391 5393 5401 5413 5427 5449 5472 5494 5514 5532 5552 5574 5593 5608 5618 5630 5639 5650 5656 5670 5685 5695 5709 5719 5730
5586 5581 5579 5575 5571 5562 5553 5546 5537 5525 5515 5503 5487 5470 5452 5435 5420 5411 5406 5401 5397 5394 5393 5392 5392 5394 5400 5411 5424 5444 5466 5489 5509 5524 5543 5565 5584 5603 5605 5616 5629 5638 5649 5662 5674 5685 5696 5709 5719
5579 5574 5571 5567 5565 5558 5551 5542 5533 5522 5512 5502 5487 5471 5455 5438 5424 5413 5408 5403 5399 5396 5394 5393 5394 5397 5402 5412 5423 5440 5461 5484 5503 5519 5536 5555 5571 5584 5594 5607 5620 5631 5640 5651 5662 5673 5683 5697 5708